Wind_Speed
18 18 18 19 20 21 22 22 23 23 24 24 25 24 25 25 25 26 27 27 28 29 29 29 29 30 30 30 30 30 29 28 29 27 27 27 27 26
19 19 19 20 21 22 22 23 24 25 25 26 26 26 26 27 27 27 28 28 29 30 30 31 30 30 29 30 30 30 30 29 30 29 28 27 27 28
21 21 21 21 22 23 23 24 25 26 26 27 28 28 27 28 28 29 29 30 30 30 30 31 31 31 31 30 29 29 29 29 28 28 28 28 28 29
22 22 23 23 24 24 25 26 26 27 28 28 29 30 29 30 30 30 30 31 31 31 31 31 32 33 32 31 31 30 30 29 29 29 29 29 29 29
24 24 24 24 25 25 26 27 27 27 28 29 29 30 30 30 30 30 30 30 30 30 31 32 32 33 33 33 33 32 31 31 31 31 31 31 30 30
25 26 26 26 26 26 26 27 27 28 28 29 30 30 30 30 30 30 30 30 31 31 31 32 31 32 33 34 33 32 32 33 33 33 33 32 32 31
25 26 26 27 27 28 28 28 29 28 29 31 31 30 30 30 30 30 30 30 31 31 30 30 30 30 31 33 33 32 33 33 33 34 34 33 33 32
25 26 26 26 27 27 28 28 28 29 29 29 29 29 30 29 29 29 29 30 30 30 30 30 29 29 30 31 32 32 33 33 34 34 33 33 33 33
27 27 28 28 27 27 28 29 29 29 29 30 29 29 30 30 30 29 29 29 30 30 30 30 30 29 30 30 31 32 33 34 34 34 34 34 34 34
28 28 27 28 28 28 28 29 29 29 29 29 29 30 30 30 29 29 29 29 30 31 30 30 30 29 28 28 29 30 31 32 33 33 33 33 34 34
28 28 28 27 28 28 29 29 29 29 30 30 30 30 30 30 30 29 29 29 29 30 31 30 29 29 28 28 29 29 31 31 32 33 33 32 33 34
27 28 28 28 28 28 28 29 30 30 31 30 29 29 29 30 30 29 29 29 30 30 30 30 29 28 28 28 28 28 30 30 30 31 32 32 32 32
28 28 28 27 27 27 28 29 29 30 30 30 30 29 29 29 29 29 29 29 29 29 29 29 29 28 29 29 29 29 29 29 30 30 31 30 30 31
27 26 26 26 27 27 28 28 29 29 29 29 29 29 29 29 29 29 29 29 28 28 29 29 29 29 29 29 29 30 30 30 29 29 30 30 31 31
26 26 26 26 26 26 27 27 27 28 28 28 28 28 29 29 29 29 29 28 28 27 28 28 28 27 28 28 28 29 29 29 30 30 30 30 30 30
26 25 25 25 26 26 27 27 28 28 28 28 28 28 28 28 28 28 28 27 27 26 26 26 26 26 26 27 28 28 28 28 29 29 30 30 30 29
26 26 25 25 25 25 26 27 27 27 28 28 28 28 28 27 27 27 26 26 26 26 26 26 26 26 27 26 26 27 28 28 29 29 29 30 30 29
25 25 25 25 25 25 26 26 27 26 26 26 27 27 27 27 27 26 26 25 25 25 26 25 25 25 26 26 26 26 27 28 28 28 28 28 28 29
25 24 24 25 26 26 26 26 26 26 26 26 26 26 26 26 26 25 25 24 25 25 25 25 25 25 25 25 25 26 26 27 27 26 26 27 27 27
24 24 24 25 26 26 26 26 26 26 26 26 25 25 25 24 24 24 24 24 24 24 24 25 24 24 25 25 25 25 26 26 26 26 26 26 26 26
24 24 24 25 25 25 25 25 25 25 25 24 24 24 24 23 23 23 23 24 24 24 24 24 23 23 24 24 25 24 24 24 25 25 25 25 25 25
24 24 24 24 24 25 25 25 24 23 23 23 23 23 23 22 22 22 22 22 22 22 22 22 23 23 23 23 23 23 22 21 22 23 23 24 24 24
24 24 24 24 24 25 24 24 23 23 23 23 22 22 22 21 21 21 20 21 21 20 21 21 21 21 21 21 21 22 21 20 21 22 22 22 22 22
Wind_Direction
285 286 284 282 279 277 277 278 278 278 276 276 275 273 273 272 271 270 270 270 269 268 266 265 264 263 261 262 259 258 256 255 253 254 254 256 257 259
285 284 285 284 283 280 279 279 279 279 278 277 276 275 274 274 273 272 271 270 270 269 267 266 265 263 262 262 261 258 256 256 255 255 255 256 257 258
286 284 284 286 285 283 282 281 280 280 279 278 277 275 275 274 273 273 272 271 269 268 267 266 264 263 262 260 260 258 257 256 256 256 257 257 257 257
290 288 286 286 287 285 284 283 281 280 280 279 279 277 276 276 274 273 272 271 269 269 268 267 266 264 261 259 258 258 257 256 256 257 258 258 258 259
289 289 288 287 287 287 286 283 282 282 281 280 279 280 278 277 275 272 271 270 270 270 270 268 266 263 261 260 257 257 257 256 257 258 258 258 258 259
289 288 288 287 287 286 286 285 283 282 282 282 281 280 278 277 275 273 271 270 270 271 271 269 266 264 262 260 258 258 257 257 258 257 258 258 257 258
291 289 289 289 287 286 284 284 284 284 283 282 281 280 279 277 276 275 273 271 270 271 270 270 268 266 262 261 260 259 258 258 259 258 258 258 257 256
293 291 292 291 290 289 288 286 285 283 283 283 281 282 281 279 277 275 274 273 271 269 269 268 267 266 265 262 260 259 260 260 259 258 257 256 254 254
293 292 292 292 291 292 291 288 286 284 284 283 282 281 280 277 277 275 274 274 273 271 269 268 267 266 266 264 261 260 259 258 258 258 258 257 254 253
293 292 292 292 292 291 290 290 290 289 287 285 282 280 279 278 277 277 277 275 273 273 270 267 266 267 266 264 263 262 260 259 258 258 258 257 256 254
294 293 293 292 292 291 289 289 289 290 290 287 285 283 282 279 277 277 276 276 273 272 270 267 265 264 263 263 263 262 261 260 260 257 257 257 256 255
296 295 294 293 292 291 291 290 290 290 289 289 287 285 283 280 278 277 276 275 274 272 268 265 264 262 260 261 264 264 262 260 259 257 256 256 256 255
298 297 295 294 293 292 292 292 292 292 291 290 289 287 284 281 279 277 277 277 275 272 268 265 262 261 260 260 261 262 260 259 258 256 253 254 255 255
298 297 296 295 293 293 293 294 294 293 292 291 290 287 285 282 280 279 278 278 276 272 269 267 264 262 262 260 259 258 258 257 256 255 252 251 253 255
299 298 296 296 295 294 294 295 294 293 292 291 291 290 287 285 283 281 279 276 274 272 269 267 265 263 262 260 258 258 258 256 256 255 253 252 254 256
301 299 298 296 296 297 297 296 295 293 292 291 290 289 287 286 284 282 278 274 272 270 268 266 264 264 264 261 258 257 257 256 256 255 253 253 253 253
300 298 298 298 298 298 297 298 298 296 294 291 289 288 287 286 284 281 277 275 272 270 268 265 262 261 261 261 259 257 256 256 255 254 253 253 252 252
300 299 298 298 298 298 298 298 299 298 296 293 290 288 287 286 283 280 277 274 272 270 268 265 262 262 261 262 260 257 257 257 255 254 254 255 252 251
301 301 299 300 300 299 298 298 298 298 297 295 292 289 288 287 283 279 275 274 275 273 270 266 264 261 261 261 261 260 257 256 255 254 254 253 250 250
302 302 301 301 302 302 300 299 298 297 296 295 293 292 290 288 284 280 276 274 275 274 272 269 267 263 260 261 260 259 259 256 254 254 252 250 250 251
305 304 303 302 303 303 303 301 299 298 296 295 293 293 292 289 285 283 279 276 275 275 272 268 264 262 262 262 262 262 259 255 253 253 252 251 252 253
307 305 304 304 303 303 303 302 301 300 298 296 295 295 293 289 285 284 283 281 278 276 271 267 264 263 262 262 263 260 258 255 252 253 253 253 253 254
307 307 306 306 305 304 303 302 300 299 300 298 298 297 294 289 286 284 283 282 281 278 273 268 265 262 259 259 258 255 252 251 250 252 252 252 252 252
Height
5832 5831 5829 5828 5827 5826 5825 5825 5824 5823 5822 5821 5820 5819 5818 5818 5817 5817 5816 5816 5816 5816 5816 5816 5816 5817 5817 5818 5819 5820 5820 5821 5822 5824 5826 5827 5828 5829
5826 5825 5823 5822 5821 5820 5819 5818 5817 5816 5815 5814 5812 5811 5810 5810 5809 5809 5808 5808 5808 5807 5808 5808 5808 5808 5809 5810 5810 5812 5813 5814 5815 5817 5818 5819 5821 5821
5820 5819 5817 5816 5815 5813 5812 5811 5809 5808 5807 5806 5805 5803 5802 5801 5801 5800 5800 5799 5799 5799 5799 5799 5800 5800 5801 5802 5803 5804 5805 5806 5808 5809 5810 5812 5813 5814
5814 5812 5811 5809 5808 5806 5805 5803 5802 5800 5799 5798 5797 5795 5794 5793 5792 5791 5791 5790 5790 5791 5790 5791 5791 5791 5792 5793 5794 5796 5797 5799 5800 5802 5803 5805 5806 5806
5807 5806 5804 5802 5801 5799 5797 5795 5794 5792 5791 5790 5788 5787 5785 5784 5783 5782 5782 5781 5781 5781 5781 5781 5782 5782 5783 5785 5786 5787 5789 5790 5792 5793 5794 5796 5797 5799
5800 5798 5796 5795 5793 5791 5789 5787 5785 5784 5782 5781 5780 5778 5776 5775 5774 5773 5773 5772 5772 5772 5772 5772 5772 5773 5774 5775 5777 5778 5779 5781 5782 5784 5786 5787 5789 5790
5793 5791 5789 5786 5784 5783 5781 5779 5777 5775 5774 5772 5771 5769 5768 5766 5765 5764 5764 5763 5763 5763 5763 5763 5763 5763 5764 5766 5767 5768 5770 5771 5773 5775 5776 5778 5779 5781
5785 5783 5781 5779 5776 5774 5772 5770 5768 5767 5765 5763 5762 5760 5759 5757 5756 5755 5755 5754 5754 5755 5754 5753 5753 5754 5755 5756 5757 5759 5760 5762 5763 5765 5766 5768 5770 5772
5777 5775 5773 5771 5768 5766 5764 5762 5759 5757 5756 5754 5752 5751 5749 5748 5747 5747 5746 5745 5745 5744 5744 5744 5745 5745 5745 5746 5748 5749 5750 5752 5753 5755 5756 5758 5759 5761
5769 5767 5765 5762 5760 5758 5755 5753 5751 5749 5747 5745 5743 5742 5740 5739 5738 5738 5737 5736 5735 5735 5735 5735 5735 5736 5736 5737 5738 5739 5740 5741 5743 5745 5746 5748 5749 5751
5761 5758 5756 5754 5751 5749 5747 5745 5742 5740 5738 5736 5734 5732 5731 5730 5729 5728 5727 5727 5727 5726 5726 5726 5726 5726 5727 5728 5729 5730 5731 5732 5733 5735 5736 5738 5739 5741
5753 5750 5748 5745 5743 5740 5738 5736 5734 5731 5729 5727 5725 5723 5722 5720 5719 5718 5718 5717 5717 5717 5716 5716 5716 5717 5718 5719 5720 5720 5721 5722 5724 5725 5727 5728 5729 5731
5744 5742 5739 5737 5734 5732 5730 5728 5725 5722 5720 5718 5716 5714 5712 5711 5709 5709 5708 5707 5707 5707 5706 5706 5706 5707 5708 5710 5711 5711 5712 5713 5714 5715 5717 5719 5720 5721
5736 5734 5731 5729 5726 5724 5722 5719 5716 5714 5711 5709 5707 5705 5703 5701 5700 5699 5698 5697 5697 5697 5697 5697 5697 5698 5699 5700 5701 5702 5703 5704 5705 5706 5707 5709 5710 5711
5728 5726 5723 5721 5718 5716 5713 5711 5708 5705 5703 5701 5698 5696 5694 5692 5691 5690 5688 5688 5688 5688 5688 5687 5688 5688 5689 5690 5691 5692 5693 5694 5696 5697 5698 5700 5701 5702
5721 5718 5715 5713 5710 5708 5705 5702 5700 5697 5695 5692 5690 5688 5686 5684 5682 5680 5679 5679 5679 5679 5679 5679 5679 5680 5680 5681 5682 5683 5684 5685 5686 5688 5689 5690 5692 5693
5713 5710 5708 5706 5703 5700 5698 5695 5692 5689 5686 5684 5681 5679 5677 5675 5673 5671 5670 5670 5670 5670 5670 5670 5670 5671 5671 5672 5673 5674 5675 5676 5677 5678 5679 5681 5683 5684
5706 5703 5700 5698 5696 5693 5690 5687 5684 5681 5678 5676 5673 5671 5669 5667 5665 5663 5662 5661 5661 5661 5661 5662 5662 5662 5663 5664 5665 5665 5666 5667 5668 5669 5670 5672 5674 5675
5699 5696 5693 5691 5688 5685 5683 5680 5677 5674 5671 5668 5666 5663 5661 5659 5657 5656 5654 5654 5653 5653 5653 5653 5653 5654 5655 5656 5656 5657 5658 5658 5659 5660 5661 5663 5665 5666
5692 5689 5686 5684 5681 5678 5675 5672 5670 5667 5664 5661 5659 5656 5653 5651 5649 5648 5647 5646 5645 5645 5645 5645 5645 5646 5646 5647 5647 5648 5649 5650 5651 5652 5653 5654 5656 5658
5686 5683 5680 5677 5674 5671 5668 5665 5662 5659 5656 5654 5652 5649 5647 5644 5642 5641 5640 5639 5638 5638 5637 5637 5637 5637 5638 5638 5639 5639 5640 5641 5642 5644 5646 5647 5648 5650
5679 5676 5673 5670 5667 5664 5661 5658 5656 5653 5650 5647 5645 5643 5640 5638 5636 5634 5633 5632 5631 5630 5629 5629 5629 5630 5630 5631 5631 5631 5632 5633 5634 5636 5638 5640 5641 5642
5673 5670 5667 5664 5661 5658 5655 5652 5649 5646 5643 5641 5638 5636 5633 5631 5629 5628 5626 5625 5624 5623 5622 5622 5622 5623 5623 5623 5623 5624 5625 5626 5628 5629 5631 5632 5634 5635